Location: ??????
(41.3164°N, 22.6615°E)
Time: 17:37:56
(UTC+00:00)

Cosmos 1300 - Pass Details

Date: 31 May 2022
Orbit: 506 x 508 km, 82.5° (Epoch: 01 July)

Event Time Altitude Azimuth Distance (km) Brightness Sun altitude
Rises 23:12:59 0° 344° (NNW) 2,618 7.2 -25.8°
Reaches altitude 10° 23:15:13 10° 336° (NNW) 1,728 6.0 -25.7°
Enters shadow 23:17:23 28° 313° (NW) 981 4.3 -25.6°
